This demonstration page uses our WeatherBlox Daily Observations layout. Learn more.

Left ArrowRight Arrow

53.62937, 11.41316

Hourly Observations for April 18, 2018

Temp ( °F °C ) Dew Point ( °F °C ) Humidity (%) Winds ( mph kmh ) Pressure ( in mb ) Visibility ( mi km ) Precip ( " mm )
6:50 am 06:50 Mostly Sunny 45 7 43 6 93 93 SE 1 2 30.42 1030 7 11 N/A
7:20 am 07:20 Mostly Sunny 46 8 45 7 93 93 VRB 1 2 30.42 1030 7 11 N/A
7:50 am 07:50 Mostly Sunny 52 11 46 8 82 82 VRB 2 4 30.42 1030 7 11 N/A
8:20 am 08:20 Mostly Sunny 54 12 46 8 77 77 VRB 1 2 30.45 1031 7 11 N/A
8:50 am 08:50 Mostly Sunny 57 14 48 9 72 72 SSW 3 6 30.45 1031 7 11 N/A
9:20 am 09:20 Mostly Sunny 61 16 50 10 68 68 WSW 5 7 30.45 1031 7 11 N/A
9:50 am 09:50 Mostly Sunny 63 17 50 10 64 64 WSW 6 9 30.45 1031 7 11 N/A
10:20 am 10:20 Mostly Sunny 64 18 50 10 60 60 W 6 9 30.45 1031 7 11 N/A
10:50 am 10:50 Mostly Sunny 66 19 48 9 52 52 W 6 9 30.45 1031 7 11 N/A
11:20 am 11:20 Mostly Sunny 68 20 48 9 49 49 WSW 8 13 30.45 1031 7 11 N/A
11:50 am 11:50 Mostly Sunny 68 20 48 9 49 49 W 8 13 30.48 1032 7 11 N/A
12:20 pm 12:20 Mostly Sunny 70 21 48 9 46 46 W 10 17 30.48 1032 7 11 N/A
12:50 pm 12:50 Mostly Sunny 70 21 50 10 50 50 W 7 11 30.48 1032 7 11 N/A
1:20 pm 13:20 Mostly Sunny 70 21 50 10 50 50 VRB 6 9 30.48 1032 7 11 N/A
1:50 pm 13:50 Mostly Sunny 70 21 50 10 50 50 W 7 11 30.48 1032 7 11 N/A
2:20 pm 14:20 Mostly Sunny 73 23 52 11 47 47 W 7 11 30.45 1031 7 11 N/A
2:50 pm 14:50 Mostly Sunny 73 23 52 11 47 47 WSW 8 13 30.45 1031 7 11 N/A
3:20 pm 15:20 Mostly Sunny 73 23 52 11 47 47 WNW 8 13 30.45 1031 7 11 N/A
3:50 pm 15:50 Mostly Sunny 73 23 52 11 47 47 W 8 13 30.45 1031 7 11 N/A
4:20 pm 16:20 Mostly Sunny 72 22 52 11 50 50 W 7 11 30.45 1031 7 11 N/A
4:50 pm 16:50 Mostly Sunny 72 22 50 10 47 47 W 9 15 30.45 1031 7 11 N/A
5:20 pm 17:20 Mostly Sunny 72 22 52 11 50 50 W 7 11 30.45 1031 7 11 N/A
5:50 pm 17:50 Mostly Sunny 72 22 54 12 53 53 WNW 6 9 30.45 1031 7 11 N/A
6:20 pm 18:20 Mostly Sunny 72 22 52 11 50 50 WNW 6 9 30.45 1031 7 11 N/A
6:50 pm 18:50 Mostly Sunny 72 22 52 11 50 50 WNW 3 6 30.45 1031 7 11 N/A
7:20 pm 19:20 Mostly Sunny 70 21 52 11 53 53 NW 3 6 30.45 1031 7 11 N/A
7:50 pm 19:50 Mostly Sunny 68 20 52 11 56 56 VRB 2 4 30.45 1031 7 11 N/A
8:20 pm 20:20 Mostly Sunny 66 19 52 11 60 60 NNE 5 7 30.45 1031 7 11 N/A
8:50 pm 20:50 Mostly Clear 59 15 54 12 82 82 ENE 6 9 30.48 1032 7 11 N/A

Powered by AerisWeather